Regional Weather Roundup
Issued by NWS

Home | Current Version | Previous Version | Text Only | Print | Product List | Glossary On
Versions: 1 2 3 4 5 6 7 8 9 10 11 12 13 14 15 16 17 18 19 20 21 22 23 24 25 26 27 28 29 30 31 32 33 34 35 36 37 38 39 40 41 42 43 44 45 46 47 48 49 50
000
ASUS42 KFFC 201403
RWRGA
WEATHER ROUNDUP FOR GEORGIA
NATIONAL WEATHER SERVICE PEACHTREE CITY GA
1000 AM EDT MON OCT 20 2014

NOTE: "FAIR" INDICATES FEW OR NO CLOUDS BELOW 12,000 FEET WITH NO
SIGNIFICANT WEATHER AND/OR OBSTRUCTIONS TO VISIBILITY.

* = USE WITH CAUTION. THE STATIONS MARKED WITH AN ASTERISK MAY NOT
REPORT WEATHER SUCH AS PRECIPITATION, FOG, OR THUNDER AND ARE NOT
QUALITY CONTROLLED BY NWS.

THE REMARK "TC" DENOTES TEMPERATURE READING IN DEGREES CELSIUS.

GAZ001>058-201500-
NORTH GEORGIA

CITY           SKY/WX    TMP DP  RH WIND       PRES   REMARKS
ATLANTA        MOSUNNY   59  50  72 CALM      30.13R
ATHENS         SUNNY     57  50  77 CALM      30.14R
CHAMBLEE       SUNNY     58  50  75 CALM      30.14R
PEACHTREE CITY SUNNY     54  50  86 CALM      30.14R
ROME           SUNNY     51  48  89 CALM      30.14R
WEST ATLANTA   SUNNY     55  50  83 CALM      30.14R
GAINESVILLE    SUNNY     58  50  75 CALM      30.16R
CARTERSVILLE   SUNNY     55  51  86 E3        30.14R


CITY           SKY/WX    TMP DP  RH WIND       PRES   REMARKS
DALTON*        SUNNY     50  50 100 CALM      30.14R
LAWRENCEVILLE* SUNNY     55  46  71 CALM      30.13R
MARIETTA       MOSUNNY   56  51  83 E1        30.13R
KENNESAW*      SUNNY     55  48  76 CALM      30.15R
$$

GAZ059>098-102>109-201500-
CENTRAL GEORGIA

CITY           SKY/WX    TMP DP  RH WIND       PRES   REMARKS
AUGUSTA-BUSH   SUNNY     54  51  90 CALM      30.15S FOG
AUGUSTA-DANIEL SUNNY     61  52  72 CALM      30.15S
COLUMBUS       SUNNY     60  52  74 CALM      30.12R
MACON          SUNNY     56  53  90 CALM      30.14R
ROBINS AFB     SUNNY     56  52  84 N1        30.14R


CITY           SKY/WX    TMP DP  RH WIND       PRES   REMARKS
LAGRANGE*      SUNNY     59  55  86 CALM      30.13R
SYLVANIA*      MOSUNNY   64  57  78 CALM      30.15S
MILLEDGEVILLE* SUNNY     59  59 100 CALM      30.14S
$$

GAZ099>101-110>166-201500-
SOUTH GEORGIA

CITY           SKY/WX    TMP DP  RH WIND       PRES   REMARKS
SAVANNAH       MOSUNNY   68  54  60 NE6       30.14R
VALDOSTA       MOSUNNY   65  54  67 E3        30.11R
ALMA           SUNNY     63  54  72 E6        30.12R
ST SIMONS      SUNNY     71  63  75 E7        30.11R
FT STEWART     SUNNY     64  53  69 NE3       30.12R
ALBANY         PTSUNNY   61  55  81 E3        30.13R
HUNTER AFB     MOSUNNY   67  58  72 NE5       30.11S
MOODY AFB      PTSUNNY   65  56  72 E10       30.11R
BRUNSWICK      SUNNY     68  63  83 CALM      30.13R


CITY           SKY/WX    TMP DP  RH WIND       PRES   REMARKS
BAINBRIDGE*    SUNNY     64  61  88 E5        30.11R
MOULTRIE*      PTSUNNY   61  57  88 E5        30.11R
VIDALIA*       SUNNY     63  55  77 E5        30.14R
WAYCROSS*      MOSUNNY   64  60  86 E5        30.12S
DOUGLAS*       MOSUNNY   64  55  72 E5        30.14S
$$


USA.gov is the U.S. government's official web portal to all federal, state and local government web resources and services.